{"data":{"norad_id":62126,"intl_designator":"2024-222N","name":"STARLINK-32490","alt_names":[],"object_type":"PAYLOAD","status":"ACTIVE","operator":null,"country":"US","launch_date":"2024-11-27","launch_site_code":"AFETR","launch_vehicle":null,"mission":null,"orbit_class":"UNKNOWN","rcs_meters":null,"size_class":null,"mass_kg":null,"dimensions":null,"purposes":["comms"],"wikipedia_slug":null,"has_3d_model":false,"image_url":null,"decayed_at":null,"tle_current":{"epoch":"2026-05-25T03:09:56.357856Z","epoch_age_seconds":63981,"freshness":"FRESH","line1":"1 62126U 24222N   26145.13190229  .00042069  00000+0  15293-2 0  9996","line2":"2 62126  42.9985  64.1500 0001129 256.4142 103.6584 15.27585809 84446","mean_motion":15.27585809,"eccentricity":0.0001129,"inclination_deg":42.9985,"raan_deg":64.15,"arg_perigee_deg":256.4142,"mean_anomaly_deg":103.6584,"bstar":0.0015293,"rev_number":8444,"period_min":94.266390242435,"perigee_km":482.25707591256,"apogee_km":483.80632780544,"semimajor_km":6861.168701859,"source":"CELESTRAK","updated_at":"2026-05-25T13:38:19.565037Z"}}}